This is the latest recevied weather packets stored in our database for station/object W2TAO. If no packets are shown the sender has not sent any weather packets the latest 10 day(s).
| Time | Temp. | Humidity | Pressure | Rain* | Wind** | Luminosity | Snow |
|---|---|---|---|---|---|---|---|
| 1778149378 | 5.56° C | 97% | 1011.9 hPa | 0 mm | - | 20 W/m² | - |
| 1778149074 | 5.56° C | 97% | 1011.7 hPa | 0 mm | - | 16 W/m² | - |
| 1778148774 | 5.56° C | 98% | 1011.7 hPa | 0 mm | - | 12 W/m² | - |
| 1778148471 | 5.56° C | 98% | 1011.8 hPa | 0 mm | - | 10 W/m² | - |
| 1778148169 | 5.56° C | 99% | 1011.7 hPa | 0 mm | - | 5 W/m² | - |
| 1778147867 | 5.56° C | 99% | 1011.8 hPa | 0 mm | - | 2 W/m² | - |
| 1778147563 | 5.56° C | 99% | 1011.6 hPa | 0 mm | - | 2 W/m² | - |
| 1778147260 | 5.56° C | 99% | 1011.4 hPa | 0 mm | - | 2 W/m² | - |
| 1778146957 | 5.56° C | 99% | 1011.3 hPa | 0 mm | - | 1 W/m² | - |
| 1778146654 | 5.56° C | 99% | 1011.3 hPa | 0 mm | - | 0 W/m² | - |
| 1778146353 | 5.56° C | 99% | 1011.1 hPa | 0 mm | - | 0 W/m² | - |
| 1778146050 | 5.56° C | 99% | 1011.2 hPa | 0 mm | - | 0 W/m² | - |
| 1778145746 | 5.56° C | 98% | 1011.3 hPa | 0 mm | - | 0 W/m² | - |
| 1778145443 | 5.56° C | 98% | 1011.3 hPa | 0 mm | - | 0 W/m² | - |
| 1778145139 | 5.56° C | 98% | 1011.2 hPa | 0 mm | - | 0 W/m² | - |
| 1778144834 | 5.56° C | 98% | 1011.2 hPa | 0 mm | - | 0 W/m² | - |
| 1778144531 | 5.56° C | 98% | 1011.2 hPa | 0 mm | - | 0 W/m² | - |
| 1778144228 | 5.56° C | 98% | 1011.3 hPa | 0 mm | - | 0 W/m² | - |
| 1778143925 | 6.11° C | 97% | 1011.2 hPa | 0 mm | - | 0 W/m² | - |
| 1778143622 | 5.56° C | 97% | 1011.2 hPa | 0 mm | - | 0 W/m² | - |
| 1778143318 | 6.11° C | 97% | 1011.2 hPa | 0 mm | - | 0 W/m² | - |
| 1778143016 | 6.11° C | 97% | 1011.5 hPa | 0 mm | - | 0 W/m² | - |
| 1778142712 | 6.11° C | 97% | 1011.6 hPa | 0 mm | - | 0 W/m² | - |
| 1778142409 | 6.11° C | 97% | 1011.5 hPa | 0 mm | - | 0 W/m² | - |
| 1778142105 | 6.11° C | 96% | 1011.6 hPa | 0 mm | - | 0 W/m² | - |
* Rain latest hour (hover to see other rain measurements)
** Current wind speed in m/s (hover to see current wind gust speed)